Погода в Мэдисоне

США     43°04′33″N   89°22′53″W
темп.,
°C
ветер,
м/с
пор.,
м/с
влажн.,
%
обл.,
%
осадки,
мм/ч
давл.,
гПа
погр.,
м
19 апреля, пн
пн1901:00+8з61169100 0.0 1009539
04:00+5зсз51190100 0.1 1010672
07:00+3сз51087100 1.8 1011794
10:00+4сз7975100 0.1 10121102
13:00+4зсз7961100 0.1 10131544
16:00+5сз7948100 0.1 10141941
19:00+4сз5857100 0.1 1015942
22:00+1сз41070100 0.0 1018437
20 апреля, вт
вт2001:00−1сз388076 0.0 1018198
04:00−2сз2579100 0.0 1019124
07:00−1сз2370100 0.0 1020159
10:00+3ссз3350100 0.0 10201077
13:00+4ссз3341100 0.1 10191821
16:00+6ссз2340100 0.0 10171835
19:00+4ссз3560100 0.6 1018155
22:00+1сз2374100 0.2 101943
21 апреля, ср
ср2101:00−2сз358673 0.3 1019107
04:00−3сз238979 0.0 102040
07:00−2сз368655 0.1 1021184
10:00+4сз57495 0.0 10211508
13:00+6зсз6935100 0.0 10193202
16:00+6зсз793999 0.0 10192492
19:00+4зсз48515 0.0 1019373
22:00−1зсз38670 0.0 1021132
22 апреля, чт
чт2201:00−2зсз38663 0.0 1021138
04:00−3зсз36685 0.0 102198
07:00−2з38650 0.0 1022188
10:00+6зсз56390 0.0 10221432
13:00+9з57385 0.0 10211788
16:00+11з674244 0.0 10191873
19:00+7зюз36645 0.0 1018128
22:00+3юз49750 0.0 1020133
23 апреля, пт
пт2301:00+2юз388011 0.0 1019131
04:00+2юз4108095 0.0 1019178
07:00+3юз4118070 0.0 1019253
10:00+9зюз5769100 0.0 1018710
13:00+9юз61079100 0.3 10171203
16:00+8ююз5986100 0.1 1015792
19:00+6ю41092100 0.1 1015538
22:00+6ююз4995100 0.3 1015487